This is the latest recevied weather packets stored in our database for station/object VK2HN. If no packets are shown the sender has not sent any weather packets the latest 10 day(s).
| Time | Temp. | Humidity | Pressure | Rain* | Wind** | Luminosity | Snow |
|---|---|---|---|---|---|---|---|
| 1778037640 | 23.33° C | 63% | 1018.1 hPa | 0 mm | - | - | - |
| 1778037340 | 22.78° C | 63% | 1018.3 hPa | 0 mm | - | - | - |
| 1778037040 | 22.78° C | 61% | 1018.4 hPa | 0 mm | - | - | - |
| 1778036740 | 23.33° C | 64% | 1018.5 hPa | 0 mm | - | - | - |
| 1778036440 | 22.78° C | 62% | 1018.6 hPa | 0 mm | - | - | - |
| 1778036140 | 22.78° C | 63% | 1018.7 hPa | 0 mm | - | - | - |
| 1778035840 | 22.78° C | 64% | 1018.7 hPa | 0 mm | - | - | - |
| 1778035540 | 22.22° C | 65% | 1018.8 hPa | 0 mm | - | - | - |
| 1778035240 | 22.22° C | 64% | 1018.9 hPa | 0 mm | - | - | - |
| 1778034940 | 22.22° C | 63% | 1019 hPa | 0 mm | - | - | - |
| 1778034640 | 22.22° C | 64% | 1019 hPa | 0 mm | - | - | - |
| 1778034340 | 22.22° C | 63% | 1019 hPa | 0 mm | - | - | - |
| 1778034040 | 22.22° C | 65% | 1019.2 hPa | 0 mm | - | - | - |
| 1778033740 | 22.22° C | 65% | 1019.4 hPa | 0 mm | - | - | - |
| 1778033440 | 21.67° C | 64% | 1019.3 hPa | 0 mm | - | - | - |
| 1778033140 | 21.67° C | 64% | 1019.5 hPa | 0 mm | - | - | - |
| 1778032840 | 22.22° C | 64% | 1019.5 hPa | 0 mm | - | - | - |
| 1778032540 | 21.67° C | 65% | 1019.7 hPa | 0 mm | - | - | - |
| 1778032240 | 21.11° C | 70% | 1019.8 hPa | 0 mm | - | - | - |
| 1778031940 | 20.56° C | 67% | 1019.8 hPa | 0 mm | - | - | - |
| 1778031640 | 20° C | 70% | 1020 hPa | 0 mm | - | - | - |
| 1778031340 | 20° C | 70% | 1020 hPa | 0 mm | - | - | - |
| 1778031040 | 19.44° C | 72% | 1020.1 hPa | 0 mm | - | - | - |
| 1778030740 | 18.89° C | 73% | 1020.2 hPa | 0 mm | - | - | - |
| 1778030440 | 18.33° C | 73% | 1020.3 hPa | 0 mm | - | - | - |
* Rain latest hour (hover to see other rain measurements)
** Current wind speed in m/s (hover to see current wind gust speed)